Wind_Speed
9 7 6 6 5 4 3 3 2 2 2 2 2 2 2 2 3 3 3 3 3 3 4 5 5 5 5 6 7 7 8 8 7 7 7 7 7 7 6 5 5 4 4
9 7 6 6 5 4 4 3 2 2 1 1 1 1 2 1 1 2 2 2 3 2 3 4 4 5 5 5 5 7 7 8 8 8 7 8 8 8 8 7 6 6 6
9 8 7 6 5 4 4 3 2 2 1 1 0 1 1 1 1 1 2 2 2 2 2 3 3 3 4 4 5 6 7 8 8 9 8 9 9 9 9 9 8 8 8
10 9 7 7 5 5 4 4 3 2 1 0 0 1 1 2 2 2 1 1 2 2 2 2 2 2 3 4 5 6 7 8 8 8 8 9 10 9 10 10 10 10 9
11 9 8 7 6 5 5 4 3 2 2 1 0 1 1 2 3 3 3 2 2 2 2 3 2 2 3 3 4 4 6 7 7 7 8 9 9 9 10 10 11 11 11
11 10 9 8 7 6 6 5 4 3 2 2 1 1 2 3 3 4 4 4 3 3 3 3 3 3 3 2 2 3 3 4 5 5 6 7 8 9 9 9 10 11 12
12 11 9 8 7 7 6 6 5 4 3 2 1 1 2 3 3 4 4 4 4 4 4 4 4 3 3 3 2 2 2 3 4 4 5 6 7 8 9 9 10 10 10
13 11 10 8 7 7 7 7 6 5 4 3 2 2 2 2 3 3 4 4 4 4 4 4 4 4 4 4 4 3 3 3 4 4 4 5 6 7 8 9 10 10 11
13 12 10 9 8 8 8 7 6 5 4 4 3 2 2 1 2 2 3 3 4 4 4 4 4 4 4 4 5 5 4 4 4 4 5 6 6 6 7 7 9 9 10
13 12 11 10 9 8 8 8 7 6 5 5 4 3 2 1 0 1 1 2 3 4 4 5 4 4 4 5 5 5 5 5 5 5 5 6 6 7 7 8 9 9 10
13 12 11 11 10 9 8 8 7 7 6 6 5 4 3 3 2 2 2 3 3 4 4 5 5 5 5 5 5 5 5 5 6 6 6 7 7 8 9 9 10 10 10
13 13 13 12 11 10 9 9 9 8 8 7 6 6 5 5 5 5 4 5 5 5 5 6 6 6 7 7 7 7 7 7 8 8 9 9 10 10 10 10 11 11 11
14 14 14 13 12 11 10 10 10 10 10 9 9 8 8 8 8 8 8 8 8 7 7 8 8 9 9 9 10 10 10 10 10 11 11 11 12 12 12 13 13 13 13
15 15 14 14 14 13 12 12 12 12 12 12 11 11 11 11 11 11 11 11 11 11 10 11 11 12 12 12 12 12 12 13 13 13 13 13 13 14 15 15 15 15 15
16 16 15 15 14 14 13 14 14 14 14 14 14 14 14 13 14 14 14 14 15 15 14 15 15 15 16 15 15 15 15 16 16 15 16 16 16 16 17 17 17 17 17
16 15 15 15 15 14 15 15 16 16 16 16 16 16 16 16 17 17 18 18 18 18 18 19 19 19 19 19 19 20 20 20 20 19 19 19 19 20 20 20 21 20 20
16 16 16 16 15 15 15 15 16 17 17 18 18 18 19 19 20 20 20 21 21 22 22 22 22 22 22 23 23 23 23 23 23 24 24 24 23 23 23 23 23 24 24
16 16 16 16 15 15 15 16 17 18 18 19 19 20 20 21 22 23 23 24 25 25 25 26 26 26 26 26 27 26 26 26 27 27 28 28 28 28 27 27 27 27 27
15 16 16 16 17 18 18 18 19 19 20 21 21 22 23 23 24 25 26 26 27 27 28 29 29 29 30 30 30 30 30 30 30 30 30 30 31 31 31 31 31 31 30
16 17 17 17 18 19 20 20 20 21 22 23 24 24 25 25 26 28 28 29 30 30 31 31 31 32 32 32 32 33 33 33 33 33 33 33 33 33 34 34 34 33 33
17 17 18 19 20 21 21 22 22 22 23 24 25 26 27 27 29 30 31 32 32 33 33 33 34 34 35 35 35 35 36 36 36 37 37 36 36 35 36 36 35 35 35
17 18 19 21 22 22 22 23 23 24 24 25 26 27 28 29 30 31 33 33 34 34 35 36 36 37 38 39 39 39 39 39 38 39 40 38 39 39 39 39 39 39 40
18 19 20 21 21 22 23 24 24 25 26 27 28 29 30 31 32 33 34 35 36 37 38 39 39 39 40 41 41 42 42 42 42 42 42 41 42 42 43 43 43 42 42
19 20 20 20 21 23 23 24 25 26 27 29 30 31 32 33 34 35 36 37 37 38 40 41 41 41 42 43 44 45 45 45 45 44 45 45 44 45 45 45 45 45 45
19 20 21 22 23 24 25 26 28 29 30 31 32 33 34 35 36 37 38 39 40 41 42 43 43 44 45 46 47 47 47 47 46 45 46 47 47 47 47 46 46 46 45
20 21 22 24 26 26 27 28 30 31 32 33 35 36 37 38 39 40 41 42 43 44 45 46 46 46 47 48 49 49 50 50 49 48 48 49 49 49 48 47 47 47 47
Wind_Direction
259 255 255 265 271 271 258 248 247 241 244 250 258 278 291 285 272 278 280 280 283 276 257 241 241 245 248 242 237 232 233 232 233 236 236 238 238 240 245 251 249 244 249
257 257 256 266 273 263 240 227 215 202 227 256 267 288 307 308 286 269 277 288 292 287 264 246 251 256 249 245 242 235 235 235 237 242 243 240 241 243 245 250 255 254 254
253 252 252 258 265 251 231 218 206 205 212 239 315 335 351 360 358 333 299 303 307 316 293 266 267 267 260 251 248 243 240 243 243 246 249 247 248 250 247 251 255 256 255
246 247 248 249 252 244 229 213 206 206 211 186 88 50 43 46 41 37 21 358 349 341 343 320 283 284 280 263 257 252 247 247 248 251 252 251 251 252 251 253 256 256 256
241 241 242 247 244 241 225 211 210 212 207 191 143 74 63 51 55 64 60 42 30 14 352 345 337 308 304 288 272 266 253 250 255 260 259 256 253 254 254 258 259 259 257
234 234 237 242 241 234 222 215 214 207 201 192 155 96 92 79 70 69 57 46 34 28 18 8 359 342 334 329 312 295 272 257 259 265 264 258 256 258 261 262 264 263 263
229 227 233 237 232 226 220 215 209 203 196 188 169 126 100 88 80 68 56 43 40 40 35 27 21 9 4 353 340 327 305 279 273 280 277 269 268 266 265 266 271 272 270
225 225 231 231 227 221 218 216 206 204 201 192 179 154 121 96 84 70 59 47 42 39 33 29 23 17 15 7 358 346 331 311 297 293 295 289 284 279 273 271 275 275 272
222 224 228 228 225 220 217 214 206 205 205 201 188 172 142 126 102 71 59 47 40 35 29 26 21 21 15 6 3 355 343 329 317 312 304 297 297 290 283 284 283 278 274
220 224 227 226 222 218 214 211 209 210 209 210 210 212 214 215 202 26 28 24 23 18 15 12 4 9 2 355 354 353 355 351 335 324 314 305 300 298 291 288 290 285 279
221 223 223 220 219 216 211 210 213 215 216 220 225 237 248 256 273 288 306 322 333 342 349 356 356 350 345 337 335 333 330 329 327 322 317 310 304 299 297 293 290 289 286
220 221 218 217 219 218 218 219 222 223 225 229 234 241 253 264 272 283 293 302 308 313 322 330 335 336 335 330 325 323 320 316 313 311 308 304 299 296 295 293 291 290 288
219 221 220 221 222 223 225 226 229 231 234 238 242 248 256 265 271 278 284 290 295 301 307 310 313 316 319 317 313 311 308 306 306 305 305 302 297 292 291 292 292 292 288
220 222 224 226 227 228 232 233 235 238 242 246 249 252 258 266 271 276 281 286 289 291 294 298 301 304 307 307 307 306 304 301 301 300 299 300 300 296 292 292 291 290 288
222 224 227 229 229 232 238 240 242 246 250 252 253 256 260 264 269 273 278 282 286 288 290 292 294 297 298 299 300 300 299 298 295 296 297 298 298 298 295 292 291 289 287
222 226 229 230 231 237 243 244 247 251 255 258 260 261 263 266 269 273 277 280 283 286 288 289 291 293 293 294 295 295 294 294 294 293 293 293 293 293 293 292 290 288 287
225 229 232 234 237 243 246 248 252 257 259 261 263 264 265 267 270 272 275 278 280 283 285 287 288 289 290 291 292 291 290 290 291 291 291 290 290 290 290 290 289 288 286
227 230 235 237 239 245 249 253 255 260 262 264 266 267 269 270 272 273 275 277 280 282 283 284 286 287 288 289 290 290 289 288 288 288 288 288 288 288 288 288 287 286 285
231 234 237 238 242 247 252 256 258 262 265 267 268 269 270 270 272 274 275 277 279 281 282 283 284 285 286 287 287 288 288 288 287 286 286 285 285 285 285 286 285 284 283
235 238 241 245 248 252 256 259 261 263 266 269 270 271 272 272 273 274 275 277 278 281 282 283 283 284 284 285 285 285 286 286 286 286 286 285 284 284 284 283 283 283 282
243 248 251 253 255 258 260 262 264 266 268 271 272 272 274 274 275 276 277 279 280 281 282 283 283 283 283 283 283 284 285 285 285 285 284 284 283 282 282 282 281 281 281
250 255 258 259 260 261 263 265 269 271 272 273 274 275 275 275 275 277 279 280 281 281 282 282 283 283 283 283 283 283 283 283 283 283 283 282 282 282 281 280 279 280 281
256 257 258 260 263 264 266 269 273 274 275 275 276 277 277 277 277 279 281 281 281 281 283 283 283 283 283 283 283 283 283 283 283 283 283 282 282 282 281 280 280 279 279
261 261 263 266 269 270 270 271 274 277 277 278 279 280 280 280 280 280 281 283 283 283 284 284 284 284 283 282 283 284 282 282 282 283 283 283 282 282 281 280 279 279 279
267 268 269 270 273 275 276 276 278 279 280 281 281 281 281 281 282 282 282 283 284 284 284 284 284 284 283 283 283 283 283 282 282 283 283 283 283 281 281 280 279 278 278
270 273 273 274 275 277 279 281 281 283 283 284 283 282 282 282 283 284 285 285 284 284 284 283 283 283 283 283 283 283 283 283 283 283 283 282 282 281 280 280 279 279 278
Height
5882 5883 5884 5884 5884 5884 5884 5885 5885 5885 5885 5886 5886 5886 5886 5886 5886 5887 5887 5887 5887 5888 5888 5888 5889 5890 5891 5891 5892 5893 5894 5896 5897 5897 5898 5899 5900 5901 5902 5903 5904 5904 5905
5881 5882 5883 5883 5883 5883 5884 5884 5885 5885 5885 5885 5885 5886 5886 5886 5886 5886 5886 5887 5887 5887 5888 5888 5889 5889 5890 5891 5891 5892 5893 5894 5895 5896 5897 5898 5899 5900 5901 5902 5903 5903 5904
5880 5881 5882 5882 5883 5883 5883 5884 5884 5885 5885 5885 5885 5885 5885 5885 5885 5886 5886 5886 5887 5887 5887 5888 5888 5889 5889 5890 5891 5891 5892 5893 5894 5894 5895 5896 5897 5898 5899 5900 5901 5902 5902
5879 5880 5881 5881 5882 5882 5882 5883 5884 5884 5885 5885 5885 5885 5885 5885 5885 5885 5886 5886 5886 5887 5887 5887 5887 5888 5889 5889 5890 5890 5891 5891 5892 5893 5894 5894 5895 5896 5897 5898 5899 5900 5901
5877 5878 5879 5880 5881 5881 5882 5883 5883 5884 5884 5885 5885 5885 5885 5885 5885 5885 5885 5886 5886 5886 5887 5887 5887 5888 5888 5888 5888 5889 5889 5890 5891 5891 5892 5893 5893 5894 5895 5896 5897 5898 5899
5875 5877 5878 5879 5880 5881 5881 5882 5883 5883 5884 5884 5885 5885 5885 5885 5885 5885 5886 5886 5886 5886 5887 5887 5887 5887 5887 5888 5888 5888 5888 5889 5889 5890 5890 5891 5892 5893 5893 5894 5895 5896 5896
5874 5875 5877 5878 5879 5879 5880 5881 5882 5883 5884 5884 5885 5885 5885 5885 5885 5885 5886 5886 5886 5886 5887 5887 5887 5887 5887 5887 5887 5887 5887 5888 5888 5889 5889 5890 5890 5891 5892 5892 5893 5893 5894
5871 5874 5875 5876 5878 5878 5879 5881 5882 5882 5883 5884 5884 5885 5885 5886 5885 5885 5886 5886 5886 5887 5887 5887 5887 5887 5887 5887 5887 5887 5887 5887 5887 5888 5888 5888 5889 5889 5890 5890 5891 5891 5891
5870 5872 5874 5875 5876 5877 5878 5880 5881 5882 5883 5883 5884 5885 5885 5885 5886 5886 5886 5886 5886 5887 5887 5886 5887 5887 5886 5886 5886 5886 5886 5886 5886 5887 5887 5887 5887 5887 5888 5888 5888 5889 5889
5868 5870 5872 5873 5875 5876 5877 5878 5880 5881 5882 5883 5884 5884 5885 5885 5885 5886 5886 5886 5886 5886 5886 5886 5886 5886 5886 5886 5886 5886 5885 5885 5886 5886 5886 5886 5886 5886 5886 5886 5886 5886 5886
5865 5868 5870 5872 5873 5875 5876 5877 5879 5880 5881 5882 5883 5883 5884 5884 5884 5885 5885 5885 5885 5885 5885 5885 5885 5885 5885 5885 5885 5885 5885 5884 5884 5884 5884 5884 5884 5884 5884 5883 5883 5883 5883
5863 5865 5868 5870 5872 5873 5875 5876 5878 5879 5880 5881 5881 5882 5883 5883 5883 5884 5884 5884 5884 5884 5884 5884 5884 5884 5884 5884 5883 5883 5883 5883 5882 5882 5882 5881 5881 5881 5881 5881 5880 5880 5880
5861 5863 5865 5867 5869 5871 5873 5874 5876 5877 5878 5879 5880 5880 5881 5882 5882 5882 5883 5883 5883 5883 5883 5883 5883 5883 5882 5882 5881 5881 5881 5880 5880 5879 5879 5878 5878 5878 5877 5877 5877 5877 5876
5858 5861 5863 5865 5867 5869 5871 5872 5874 5875 5876 5877 5877 5878 5879 5879 5880 5880 5881 5881 5881 5881 5881 5881 5881 5880 5880 5879 5879 5878 5878 5877 5877 5876 5876 5875 5874 5874 5874 5873 5873 5872 5872
5856 5858 5860 5862 5864 5866 5868 5870 5871 5872 5873 5874 5875 5875 5876 5876 5877 5877 5877 5878 5878 5878 5878 5878 5878 5877 5877 5876 5875 5875 5874 5873 5873 5872 5872 5871 5871 5870 5869 5869 5868 5868 5867
5853 5855 5857 5859 5861 5863 5865 5867 5868 5869 5870 5871 5871 5872 5873 5873 5873 5874 5874 5874 5874 5874 5874 5874 5874 5873 5872 5872 5871 5871 5870 5869 5868 5868 5867 5866 5866 5865 5864 5864 5863 5863 5862
5850 5852 5854 5856 5858 5860 5862 5863 5864 5865 5866 5867 5867 5868 5869 5869 5869 5869 5869 5869 5869 5869 5869 5868 5868 5868 5867 5867 5866 5865 5864 5864 5863 5862 5861 5861 5860 5859 5858 5857 5857 5856 5856
5847 5849 5851 5853 5855 5856 5858 5859 5860 5861 5862 5862 5863 5863 5864 5864 5864 5864 5864 5864 5864 5863 5863 5863 5862 5862 5861 5860 5860 5859 5858 5857 5857 5856 5855 5854 5853 5852 5851 5850 5849 5849 5848
5844 5846 5847 5849 5851 5852 5854 5855 5856 5857 5857 5857 5858 5858 5858 5859 5859 5858 5858 5858 5858 5857 5857 5856 5855 5855 5854 5853 5853 5851 5850 5850 5849 5848 5847 5846 5845 5844 5843 5842 5842 5841 5840
5840 5842 5844 5845 5846 5848 5849 5850 5850 5851 5851 5852 5852 5852 5852 5852 5852 5852 5851 5851 5851 5850 5849 5848 5848 5847 5846 5845 5844 5843 5842 5841 5840 5839 5838 5838 5837 5835 5835 5834 5833 5832 5831
5836 5838 5839 5841 5842 5843 5843 5844 5845 5845 5845 5846 5846 5845 5845 5845 5845 5844 5844 5843 5842 5842 5841 5840 5839 5838 5837 5836 5835 5834 5833 5832 5831 5829 5828 5828 5827 5826 5825 5823 5823 5822 5821
5832 5834 5835 5836 5836 5837 5838 5838 5839 5839 5839 5839 5839 5838 5838 5838 5837 5837 5836 5835 5834 5833 5832 5831 5830 5829 5827 5826 5825 5824 5823 5822 5821 5820 5818 5817 5816 5815 5814 5813 5812 5810 5809
5828 5829 5829 5830 5831 5831 5832 5832 5832 5832 5832 5832 5831 5831 5830 5830 5829 5828 5827 5826 5825 5823 5822 5821 5820 5818 5817 5815 5814 5812 5811 5810 5809 5807 5805 5805 5804 5802 5801 5800 5799 5798 5797
5822 5823 5824 5824 5824 5825 5825 5825 5825 5825 5825 5824 5823 5822 5821 5821 5820 5819 5817 5816 5815 5813 5811 5809 5809 5807 5805 5803 5801 5800 5799 5797 5796 5795 5792 5791 5791 5789 5788 5786 5785 5784 5783
5817 5817 5818 5818 5818 5818 5818 5818 5818 5817 5816 5815 5814 5813 5812 5811 5810 5808 5807 5806 5804 5802 5800 5798 5797 5795 5793 5791 5789 5787 5786 5784 5783 5782 5779 5777 5776 5774 5773 5772 5771 5770 5769
5812 5812 5811 5812 5811 5811 5811 5811 5810 5809 5808 5807 5805 5804 5802 5801 5799 5797 5796 5794 5793 5791 5788 5786 5784 5782 5780 5777 5775 5773 5771 5769 5768 5767 5765 5762 5761 5759 5759 5758 5756 5755 5753